Simultaneous Nadir Overpasses (SNOs) Predictions

Prediction of SNOs between LANDSAT-8 and METOP-B Satellite Orbit:

Table of predicted SNOs for the next 14.0 days since TLE Epoch: 4/16/2022
Index Date (LANDSAT-8) Time (LANDSAT-8) Lat,Lon (LANDSAT-8) SZA (LANDSAT-8 ) Date (METOP-B) Time (METOP-B) Lat,Lon (METOP-B) SZA (METOP-B ) Distance(km) Time Diff (sec)
1 04/17/2022 09:28:38 81.15, 78.36 72.78 04/17/2022 09:28:23 81.16, 78.55 72.80 3.31 15
2 04/17/2022 10:18:04 -81.17,-113.69 107.19 04/17/2022 10:19:03 -81.16,-113.86 107.19 3.06 59
3 04/20/2022 05:02:53 81.14, 144.62 71.80 04/20/2022 05:02:46 81.15, 144.60 71.80 0.31 7
4 04/20/2022 05:52:19 -81.16, -47.41 108.17 04/20/2022 05:53:25 -81.17, -47.42 108.14 0.24 66
5 04/22/2022 23:47:42 -81.12, 43.08 109.18 04/22/2022 23:46:29 -81.12, 42.97 109.22 1.89 73
6 04/23/2022 00:37:07 81.15,-148.88 70.87 04/23/2022 00:37:08 81.14,-149.01 70.86 2.17 1
7 04/23/2022 01:26:33 -81.17, 19.11 109.09 04/23/2022 01:27:47 -81.17, 18.98 109.07 2.28 74
8 04/25/2022 19:21:55 -81.12, 109.48 110.09 04/25/2022 19:20:50 -81.12, 109.33 110.14 2.72 65
9 04/25/2022 20:11:20 81.14, -82.51 69.96 04/25/2022 20:11:29 81.14, -82.67 69.94 2.83 9
10 04/28/2022 14:56:08 -81.13, 176.12 110.94 04/28/2022 14:55:11 -81.13, 176.01 110.98 1.99 57



Historial Predications of SNOs between LANDSAT-8 and METOP-B
